owner,sensor,date,latitude,longitude,vertical_datum,direction_of_sea_water_velocity,sea_water_speed,upward_sea_water_velocity,qcFlag 
TABS,ioos:station:TABS:H:1,2007-05-01T00:00:00Z,27.8674,-96.5433,2.0,22.34590391,9.968575625,-99999.0,'11133222,11111222,99999999' 
TABS,ioos:station:TABS:H:1,2007-05-01T00:30:00Z,27.8674,-96.5433,2.0,30.81584415,12.61033306,-99999.0,'11111222,11111222,99999999' 
TABS,ioos:station:TABS:H:1,2007-05-01T01:00:00Z,27.8674,-96.5433,2.0,40.27759647,15.54548488,-99999.0,'11111222,11111222,99999999' 
TABS,ioos:station:TABS:H:1,2007-05-01T01:30:00Z,27.8674,-96.5433,2.0,55.75513834,12.31492184,-99999.0,'11111222,11111222,99999999' 
TABS,ioos:station:TABS:H:1,2007-05-01T02:00:00Z,27.8674,-96.5433,2.0,49.42300632,10.26948879,-99999.0,'11111222,11111222,99999999' 
TABS,ioos:station:TABS:H:1,2007-05-01T02:30:00Z,27.8674,-96.5433,2.0,26.22717603,9.096482837,-99999.0,'11133222,11111222,99999999' 
TABS,ioos:station:TABS:H:1,2007-05-01T03:00:00Z,27.8674,-96.5433,2.0,343.7358209,10.85440003,-99999.0,'11111222,11111222,99999999' 
TABS,ioos:station:TABS:H:1,2007-05-01T03:30:00Z,27.8674,-96.5433,2.0,348.970705,12.02206305,-99999.0,'11111222,11111222,99999999' 
TABS,ioos:station:TABS:H:1,2007-05-01T04:00:00Z,27.8674,-96.5433,2.0,347.2340791,14.66245546,-99999.0,'11111222,11111222,99999999' 
TABS,ioos:station:TABS:H:1,2007-05-01T04:30:00Z,27.8674,-96.5433,2.0,347.5887324,16.42383938,-99999.0,'11111222,11111222,99999999' 
TABS,ioos:station:TABS:H:1,2007-05-01T05:00:00Z,27.8674,-96.5433,2.0,346.5256178,15.83591172,-99999.0,'11111222,11111222,99999999' 
TABS,ioos:station:TABS:H:1,2007-05-01T05:30:00Z,27.8674,-96.5433,2.0,357.7675928,20.53558862,-99999.0,'11111222,11111222,99999999' 
TABS,ioos:station:TABS:H:1,2007-05-01T06:00:00Z,27.8674,-96.5433,2.0,350.0284579,22.00238623,-99999.0,'11111222,11111222,99999999' 
TABS,ioos:station:TABS:H:1,2007-05-01T06:30:00Z,27.8674,-96.5433,2.0,3.037969642,21.70049308,-99999.0,'11111222,11111222,99999999' 
TABS,ioos:station:TABS:H:1,2007-05-01T07:00:00Z,27.8674,-96.5433,2.0,11.08697476,30.21388092,-99999.0,'11111222,11111222,99999999' 
TABS,ioos:station:TABS:H:1,2007-05-01T07:30:00Z,27.8674,-96.5433,2.0,7.924951467,33.14655035,-99999.0,'11111222,11111222,99999999' 
TABS,ioos:station:TABS:H:1,2007-05-01T08:00:00Z,27.8674,-96.5433,2.0,18.47433961,36.9543854,-99999.0,'11111222,11111222,99999999' 
TABS,ioos:station:TABS:H:1,2007-05-01T08:30:00Z,27.8674,-96.5433,2.0,23.04699601,35.19943892,-99999.0,'11111222,11111222,99999999' 
TABS,ioos:station:TABS:H:1,2007-05-01T09:00:00Z,27.8674,-96.5433,2.0,18.47854755,37.54573345,-99999.0,'11111222,11111222,99999999' 
TABS,ioos:station:TABS:H:1,2007-05-01T09:30:00Z,27.8674,-96.5433,2.0,27.27370602,37.25126843,-99999.0,'11111222,11111222,99999999' 
TABS,ioos:station:TABS:H:1,2007-05-01T10:00:00Z,27.8674,-96.5433,2.0,28.67524951,36.07434823,-99999.0,'11111222,11111222,99999999' 
TABS,ioos:station:TABS:H:1,2007-05-01T10:30:00Z,27.8674,-96.5433,2.0,45.5545316,43.11431897,-99999.0,'11111222,11111222,99999999' 
TABS,ioos:station:TABS:H:1,2007-05-01T11:00:00Z,27.8674,-96.5433,2.0,52.23933053,43.99331767,-99999.0,'11111222,11111222,99999999' 
TABS,ioos:station:TABS:H:1,2007-05-01T11:30:00Z,27.8674,-96.5433,2.0,53.281764,34.02011905,-99999.0,'11111222,11111222,99999999' 
TABS,ioos:station:TABS:H:1,2007-05-01T12:00:00Z,27.8674,-96.5433,2.0,61.02391776,39.01367581,-99999.0,'11111222,11111222,99999999' 
TABS,ioos:station:TABS:H:1,2007-05-01T12:30:00Z,27.8674,-96.5433,2.0,63.12666198,39.88755821,-99999.0,'11111222,11111222,99999999' 
TABS,ioos:station:TABS:H:1,2007-05-01T13:00:00Z,27.8674,-96.5433,2.0,75.08918416,30.50725979,-99999.0,'11111222,11111222,99999999' 
TABS,ioos:station:TABS:H:1,2007-05-01T13:30:00Z,27.8674,-96.5433,2.0,78.59799664,30.5019819,-99999.0,'11111222,11111222,99999999' 
TABS,ioos:station:TABS:H:1,2007-05-01T14:00:00Z,27.8674,-96.5433,2.0,82.11756337,25.52113634,-99999.0,'11111222,11111222,99999999' 
TABS,ioos:station:TABS:H:1,2007-05-01T14:30:00Z,27.8674,-96.5433,2.0,82.46991693,18.77188589,-99999.0,'11111222,11111222,99999999' 
TABS,ioos:station:TABS:H:1,2007-05-01T15:00:00Z,27.8674,-96.5433,2.0,91.25337271,15.54371899,-99999.0,'11111222,11111222,99999999' 
TABS,ioos:station:TABS:H:1,2007-05-01T15:30:00Z,27.8674,-96.5433,2.0,104.9695158,9.678455455,-99999.0,'11133222,11111222,99999999' 
TABS,ioos:station:TABS:H:1,2007-05-01T16:00:00Z,27.8674,-96.5433,2.0,82.44226197,8.211333631,-99999.0,'11133222,11111222,99999999' 
TABS,ioos:station:TABS:H:1,2007-05-01T16:30:00Z,27.8674,-96.5433,2.0,116.5649891,4.98643159,-99999.0,'11133222,11111222,99999999' 
TABS,ioos:station:TABS:H:1,2007-05-01T17:00:00Z,27.8674,-96.5433,2.0,117.9453399,5.569425464,-99999.0,'11133222,11111222,99999999' 
TABS,ioos:station:TABS:H:1,2007-05-01T17:30:00Z,27.8674,-96.5433,2.0,114.1608586,3.51819556,-99999.0,'11133222,11111222,99999999' 
TABS,ioos:station:TABS:H:1,2007-05-01T18:00:00Z,27.8674,-96.5433,2.0,155.1793062,2.64425793,-99999.0,'11133222,11111222,99999999' 
TABS,ioos:station:TABS:H:1,2007-05-01T18:30:00Z,27.8674,-96.5433,2.0,261.7588865,2.930255962,-99999.0,'11133222,11111222,99999999' 
TABS,ioos:station:TABS:H:1,2007-05-01T19:00:00Z,27.8674,-96.5433,2.0,286.7506463,3.226918034,-99999.0,'11133222,11111222,99999999' 
TABS,ioos:station:TABS:H:1,2007-05-01T19:30:00Z,27.8674,-96.5433,2.0,308.1912814,3.81701454,-99999.0,'11133222,11111222,99999999' 
TABS,ioos:station:TABS:H:1,2007-05-01T20:00:00Z,27.8674,-96.5433,2.0,298.7148102,7.035147475,-99999.0,'11133222,11111222,99999999' 
TABS,ioos:station:TABS:H:1,2007-05-01T20:30:00Z,27.8674,-96.5433,2.0,314.1566657,5.282660315,-99999.0,'11133222,11111222,99999999' 
TABS,ioos:station:TABS:H:1,2007-05-01T21:00:00Z,27.8674,-96.5433,2.0,314.1854048,11.43507324,-99999.0,'11111222,11111222,99999999' 
TABS,ioos:station:TABS:H:1,2007-05-01T21:30:00Z,27.8674,-96.5433,2.0,327.8940296,11.43951485,-99999.0,'11111222,11111222,99999999' 
TABS,ioos:station:TABS:H:1,2007-05-01T22:00:00Z,27.8674,-96.5433,2.0,341.9241454,9.088564243,-99999.0,'11133222,11111222,99999999' 
TABS,ioos:station:TABS:H:1,2007-05-01T22:30:00Z,27.8674,-96.5433,2.0,2.320087441,9.387694073,-99999.0,'11133222,11111222,99999999' 
TABS,ioos:station:TABS:H:1,2007-05-01T23:00:00Z,27.8674,-96.5433,2.0,4.092291037,12.61215287,-99999.0,'11111222,11111222,99999999' 
TABS,ioos:station:TABS:H:1,2007-05-01T23:30:00Z,27.8674,-96.5433,2.0,39.54823127,9.972893261,-99999.0,'11133222,11111222,99999999' 
TABS,ioos:station:TABS:H:1,2007-05-02T00:00:00Z,27.8674,-96.5433,2.0,45.54294179,8.209878196,-99999.0,'11133222,11111222,99999999' 
TABS,ioos:station:TABS:H:1,2007-05-02T00:30:00Z,27.8674,-96.5433,2.0,102.8042361,2.932933685,-99999.0,'11133222,11111222,99999999' 
TABS,ioos:station:TABS:H:1,2007-05-02T01:00:00Z,27.8674,-96.5433,2.0,52.13828542,3.812571311,-99999.0,'11133222,11111222,99999999' 
TABS,ioos:station:TABS:H:1,2007-05-02T01:30:00Z,27.8674,-96.5433,2.0,112.988663,3.226220699,-99999.0,'11133222,11111222,99999999' 
TABS,ioos:station:TABS:H:1,2007-05-02T02:00:00Z,27.8674,-96.5433,2.0,225.1377458,2.934501661,-99999.0,'11133222,11111222,99999999' 
TABS,ioos:station:TABS:H:1,2007-05-02T02:30:00Z,27.8674,-96.5433,2.0,231.8820484,10.56250444,-99999.0,'11111222,11111222,99999999' 
TABS,ioos:station:TABS:H:1,2007-05-02T03:00:00Z,27.8674,-96.5433,2.0,238.9485097,6.746762186,-99999.0,'11133222,11111222,99999999' 
TABS,ioos:station:TABS:H:1,2007-05-02T03:30:00Z,27.8674,-96.5433,2.0,234.7129126,11.14825547,-99999.0,'11111222,11111222,99999999' 
TABS,ioos:station:TABS:H:1,2007-05-02T04:00:00Z,27.8674,-96.5433,2.0,256.1506084,12.61677059,-99999.0,'11111222,11111222,99999999' 
TABS,ioos:station:TABS:H:1,2007-05-02T04:30:00Z,27.8674,-96.5433,2.0,263.8963345,14.95476513,-99999.0,'11111222,11111222,99999999' 
TABS,ioos:station:TABS:H:1,2007-05-02T05:00:00Z,27.8674,-96.5433,2.0,270.2174488,13.2000947,-99999.0,'11111222,11111222,99999999' 
TABS,ioos:station:TABS:H:1,2007-05-02T05:30:00Z,27.8674,-96.5433,2.0,269.5110775,16.42059682,-99999.0,'11111222,11111222,99999999' 
TABS,ioos:station:TABS:H:1,2007-05-02T06:00:00Z,27.8674,-96.5433,2.0,251.2475728,10.85626547,-99999.0,'11111222,11111222,99999999' 
TABS,ioos:station:TABS:H:1,2007-05-02T06:30:00Z,27.8674,-96.5433,2.0,267.3943353,9.680005165,-99999.0,'11133222,11111222,99999999' 
TABS,ioos:station:TABS:H:1,2007-05-02T07:00:00Z,27.8674,-96.5433,2.0,290.2721668,10.85218872,-99999.0,'11111222,11111222,99999999' 
TABS,ioos:station:TABS:H:1,2007-05-02T07:30:00Z,27.8674,-96.5433,2.0,256.8655875,6.16116872,-99999.0,'11133222,11111222,99999999' 
TABS,ioos:station:TABS:H:1,2007-05-02T08:00:00Z,27.8674,-96.5433,2.0,191.1499201,3.516375975,-99999.0,'11133222,11111222,99999999' 
TABS,ioos:station:TABS:H:1,2007-05-02T08:30:00Z,27.8674,-96.5433,2.0,251.216963,4.689744129,-99999.0,'11133222,11111222,99999999' 
TABS,ioos:station:TABS:H:1,2007-05-02T09:00:00Z,27.8674,-96.5433,2.0,179.2185337,4.400409072,-99999.0,'11133222,11111222,99999999' 
TABS,ioos:station:TABS:H:1,2007-05-02T09:30:00Z,27.8674,-96.5433,2.0,217.8525798,9.093338221,-99999.0,'11133222,11111222,99999999' 
TABS,ioos:station:TABS:H:1,2007-05-02T10:00:00Z,27.8674,-96.5433,2.0,164.0131442,7.624886884,-99999.0,'11133222,11111222,99999999' 
TABS,ioos:station:TABS:H:1,2007-05-02T10:30:00Z,27.8674,-96.5433,2.0,179.1559612,12.90139915,-99999.0,'11111222,11111222,99999999' 
TABS,ioos:station:TABS:H:1,2007-05-02T11:00:00Z,27.8674,-96.5433,2.0,189.7029012,10.56108422,-99999.0,'11111222,11111222,99999999' 
TABS,ioos:station:TABS:H:1,2007-05-02T11:30:00Z,27.8674,-96.5433,2.0,183.7374103,9.971208553,-99999.0,'11133222,11111222,99999999' 
TABS,ioos:station:TABS:H:1,2007-05-02T12:00:00Z,27.8674,-96.5433,2.0,173.9047996,12.90293765,-99999.0,'11111222,11111222,99999999' 
TABS,ioos:station:TABS:H:1,2007-05-02T12:30:00Z,27.8674,-96.5433,2.0,193.9229274,25.80826612,-99999.0,'11111222,11111222,99999999' 
TABS,ioos:station:TABS:H:1,2007-05-02T13:00:00Z,27.8674,-96.5433,2.0,203.068419,22.58607757,-99999.0,'11111222,11111222,99999999' 
TABS,ioos:station:TABS:H:1,2007-05-02T13:30:00Z,27.8674,-96.5433,2.0,202.7105264,23.75156837,-99999.0,'11111222,11111222,99999999' 
TABS,ioos:station:TABS:H:1,2007-05-02T14:00:00Z,27.8674,-96.5433,2.0,200.2603715,26.10520446,-99999.0,'11111222,11111222,99999999' 
TABS,ioos:station:TABS:H:1,2007-05-02T14:30:00Z,27.8674,-96.5433,2.0,204.8284082,23.17183204,-99999.0,'11111222,11111222,99999999' 
TABS,ioos:station:TABS:H:1,2007-05-02T15:00:00Z,27.8674,-96.5433,2.0,199.9059926,22.29192006,-99999.0,'11111222,11111222,99999999' 
TABS,ioos:station:TABS:H:1,2007-05-02T15:30:00Z,27.8674,-96.5433,2.0,182.6698155,20.8226055,-99999.0,'11111222,11111222,99999999' 
TABS,ioos:station:TABS:H:1,2007-05-02T16:00:00Z,27.8674,-96.5433,2.0,173.887151,21.41173744,-99999.0,'11111222,11111222,99999999' 
TABS,ioos:station:TABS:H:1,2007-05-02T16:30:00Z,27.8674,-96.5433,2.0,168.9700416,19.65303284,-99999.0,'11111222,11111222,99999999' 
TABS,ioos:station:TABS:H:1,2007-05-02T17:00:00Z,27.8674,-96.5433,2.0,176.3443434,22.58595139,-99999.0,'11111222,11111222,99999999' 
TABS,ioos:station:TABS:H:1,2007-05-02T17:30:00Z,27.8674,-96.5433,2.0,178.1007258,20.82143607,-99999.0,'11111222,11111222,99999999' 
TABS,ioos:station:TABS:H:1,2007-05-02T18:00:00Z,27.8674,-96.5433,2.0,175.3014453,24.05081703,-99999.0,'11111222,11111222,99999999' 
TABS,ioos:station:TABS:H:1,2007-05-02T18:30:00Z,27.8674,-96.5433,2.0,178.1054303,19.36058109,-99999.0,'11111222,11111222,99999999' 
TABS,ioos:station:TABS:H:1,2007-05-02T19:00:00Z,27.8674,-96.5433,2.0,173.1795511,18.18871078,-99999.0,'11111222,11111222,99999999' 
TABS,ioos:station:TABS:H:1,2007-05-02T19:30:00Z,27.8674,-96.5433,2.0,181.2643041,14.9536417,-99999.0,'11111222,11111222,99999999' 
TABS,ioos:station:TABS:H:1,2007-05-02T20:00:00Z,27.8674,-96.5433,2.0,180.5723901,17.01084948,-99999.0,'11111222,11111222,99999999' 
TABS,ioos:station:TABS:H:1,2007-05-02T20:30:00Z,27.8674,-96.5433,2.0,185.5037899,14.07489254,-99999.0,'11111222,11111222,99999999' 
TABS,ioos:station:TABS:H:1,2007-05-02T21:00:00Z,27.8674,-96.5433,2.0,175.9940289,17.89371398,-99999.0,'11111222,11111222,99999999' 
TABS,ioos:station:TABS:H:1,2007-05-02T21:30:00Z,27.8674,-96.5433,2.0,197.4523994,11.43647673,-99999.0,'11111222,11111222,99999999' 
TABS,ioos:station:TABS:H:1,2007-05-02T22:00:00Z,27.8674,-96.5433,2.0,202.0187254,13.20303374,-99999.0,'11111222,11111222,99999999' 
TABS,ioos:station:TABS:H:1,2007-05-02T22:30:00Z,27.8674,-96.5433,2.0,214.337625,13.49117119,-99999.0,'11111222,11111222,99999999' 
TABS,ioos:station:TABS:H:1,2007-05-02T23:00:00Z,27.8674,-96.5433,2.0,213.6023575,9.088773295,-99999.0,'11133222,11111222,99999999' 
TABS,ioos:station:TABS:H:1,2007-05-02T23:30:00Z,27.8674,-96.5433,2.0,206.6133137,10.55871678,-99999.0,'11111222,11111222,99999999' 
TABS,ioos:station:TABS:H:1,2007-05-03T00:00:00Z,27.8674,-96.5433,2.0,219.2779597,10.85158514,-99999.0,'11111222,11111222,99999999' 
TABS,ioos:station:TABS:H:1,2007-05-03T00:30:00Z,27.8674,-96.5433,2.0,214.668852,16.71833126,-99999.0,'11111222,11111222,99999999' 
TABS,ioos:station:TABS:H:1,2007-05-03T01:00:00Z,27.8674,-96.5433,2.0,229.0913178,14.36967989,-99999.0,'11111222,11111222,99999999' 
TABS,ioos:station:TABS:H:1,2007-05-03T01:30:00Z,27.8674,-96.5433,2.0,217.8502128,14.37410519,-99999.0,'11111222,11111222,99999999' 
TABS,ioos:station:TABS:H:1,2007-05-03T02:00:00Z,27.8674,-96.5433,2.0,243.1575958,12.02571412,-99999.0,'11111222,11111222,99999999' 
TABS,ioos:station:TABS:H:1,2007-05-03T02:30:00Z,27.8674,-96.5433,2.0,238.1854148,7.625667184,-99999.0,'11133222,11111222,99999999' 
TABS,ioos:station:TABS:H:1,2007-05-03T03:00:00Z,27.8674,-96.5433,2.0,233.9722899,9.385014651,-99999.0,'11133222,11111222,99999999' 
TABS,ioos:station:TABS:H:1,2007-05-03T03:30:00Z,27.8674,-96.5433,2.0,239.2922055,9.967597504,-99999.0,'11133222,11111222,99999999' 
TABS,ioos:station:TABS:H:1,2007-05-03T04:00:00Z,27.8674,-96.5433,2.0,255.8197346,9.674776483,-99999.0,'11133222,11111222,99999999' 
TABS,ioos:station:TABS:H:1,2007-05-03T04:30:00Z,27.8674,-96.5433,2.0,236.8242891,11.73238254,-99999.0,'11111222,11111222,99999999' 
TABS,ioos:station:TABS:H:1,2007-05-03T05:00:00Z,27.8674,-96.5433,2.0,239.31118,8.20973203,-99999.0,'11133222,11111222,99999999' 
TABS,ioos:station:TABS:H:1,2007-05-03T05:30:00Z,27.8674,-96.5433,2.0,219.5744706,3.814249599,-99999.0,'11133222,11111222,99999999' 
TABS,ioos:station:TABS:H:1,2007-05-03T06:00:00Z,27.8674,-96.5433,2.0,250.5758499,5.86373601,-99999.0,'11133222,11111222,99999999' 
TABS,ioos:station:TABS:H:1,2007-05-03T06:30:00Z,27.8674,-96.5433,2.0,240.0123479,6.742588524,-99999.0,'11133222,11111222,99999999' 
TABS,ioos:station:TABS:H:1,2007-05-03T07:00:00Z,27.8674,-96.5433,2.0,236.106655,4.698340132,-99999.0,'11133222,11111222,99999999' 
TABS,ioos:station:TABS:H:1,2007-05-03T07:30:00Z,27.8674,-96.5433,2.0,225.9200171,7.043692214,-99999.0,'11133222,11111222,99999999' 
TABS,ioos:station:TABS:H:1,2007-05-03T08:00:00Z,27.8674,-96.5433,2.0,271.9529254,6.163578506,-99999.0,'11133222,11111222,99999999' 
TABS,ioos:station:TABS:H:1,2007-05-03T08:30:00Z,27.8674,-96.5433,2.0,244.2229147,12.02671194,-99999.0,'11111222,11111222,99999999' 
TABS,ioos:station:TABS:H:1,2007-05-03T09:00:00Z,27.8674,-96.5433,2.0,277.622948,10.85592926,-99999.0,'11111222,11111222,99999999' 
TABS,ioos:station:TABS:H:1,2007-05-03T09:30:00Z,27.8674,-96.5433,2.0,254.7736616,13.78384562,-99999.0,'11111222,11111222,99999999' 
TABS,ioos:station:TABS:H:1,2007-05-03T10:00:00Z,27.8674,-96.5433,2.0,265.2875729,12.9036119,-99999.0,'11111222,11111222,99999999' 
TABS,ioos:station:TABS:H:1,2007-05-03T10:30:00Z,27.8674,-96.5433,2.0,234.7129126,5.574127734,-99999.0,'11133222,11111222,99999999' 
TABS,ioos:station:TABS:H:1,2007-05-03T11:00:00Z,27.8674,-96.5433,2.0,262.4772377,7.333109845,-99999.0,'11133222,11111222,99999999' 
TABS,ioos:station:TABS:H:1,2007-05-03T11:30:00Z,27.8674,-96.5433,2.0,210.1323831,7.33062071,-99999.0,'11133222,11111222,99999999' 
TABS,ioos:station:TABS:H:1,2007-05-03T12:00:00Z,27.8674,-96.5433,2.0,260.1617511,1.755818897,-99999.0,'11133222,11111222,99999999' 
TABS,ioos:station:TABS:H:1,2007-05-03T12:30:00Z,27.8674,-96.5433,2.0,139.4323102,12.90085656,-99999.0,'11111222,11111222,99999999' 
TABS,ioos:station:TABS:H:1,2007-05-03T13:00:00Z,27.8674,-96.5433,2.0,128.1953122,6.743804564,-99999.0,'11133222,11111222,99999999' 
TABS,ioos:station:TABS:H:1,2007-05-03T13:30:00Z,27.8674,-96.5433,2.0,159.4927351,4.110486589,-99999.0,'11133222,11111222,99999999' 
TABS,ioos:station:TABS:H:1,2007-05-03T14:00:00Z,27.8674,-96.5433,2.0,70.48417263,5.867069115,-99999.0,'11133222,11111222,99999999' 
TABS,ioos:station:TABS:H:1,2007-05-03T14:30:00Z,27.8674,-96.5433,2.0,103.5622141,2.345399753,-99999.0,'11133222,11111222,99999999' 
TABS,ioos:station:TABS:H:1,2007-05-03T15:00:00Z,27.8674,-96.5433,2.0,113.0703583,7.043294684,-99999.0,'11133222,11111222,99999999' 
TABS,ioos:station:TABS:H:1,2007-05-03T15:30:00Z,27.8674,-96.5433,2.0,107.7729829,12.31789349,-99999.0,'11111222,11111222,99999999' 
TABS,ioos:station:TABS:H:1,2007-05-03T16:00:00Z,27.8674,-96.5433,2.0,98.28254104,17.00739251,-99999.0,'11111222,11111222,99999999' 
TABS,ioos:station:TABS:H:1,2007-05-03T16:30:00Z,27.8674,-96.5433,2.0,105.6845993,20.82545078,-99999.0,'11111222,11111222,99999999' 
TABS,ioos:station:TABS:H:1,2007-05-03T17:00:00Z,27.8674,-96.5433,2.0,129.5938287,19.06354112,-99999.0,'11111222,11111222,99999999' 
TABS,ioos:station:TABS:H:1,2007-05-03T17:30:00Z,27.8674,-96.5433,2.0,151.7308559,29.32781956,-99999.0,'11111222,11111222,99999999' 
TABS,ioos:station:TABS:H:1,2007-05-03T18:00:00Z,27.8674,-96.5433,2.0,164.0473079,33.14647794,-99999.0,'11111222,11111222,99999999' 
TABS,ioos:station:TABS:H:1,2007-05-03T18:30:00Z,27.8674,-96.5433,2.0,158.0643208,34.90710529,-99999.0,'11111222,11111222,99999999' 
TABS,ioos:station:TABS:H:1,2007-05-03T19:00:00Z,27.8674,-96.5433,2.0,151.7446467,35.78371138,-99999.0,'11111222,11111222,99999999' 
TABS,ioos:station:TABS:H:1,2007-05-03T19:30:00Z,27.8674,-96.5433,2.0,145.0565554,33.73106728,-99999.0,'11111222,11111222,99999999' 
TABS,ioos:station:TABS:H:1,2007-05-03T20:00:00Z,27.8674,-96.5433,2.0,147.5168064,29.62479029,-99999.0,'11111222,11111222,99999999' 
TABS,ioos:station:TABS:H:1,2007-05-03T20:30:00Z,27.8674,-96.5433,2.0,147.1660284,29.32472677,-99999.0,'11111222,11111222,99999999' 
TABS,ioos:station:TABS:H:1,2007-05-03T21:00:00Z,27.8674,-96.5433,2.0,147.162576,33.72950785,-99999.0,'11111222,11111222,99999999' 
TABS,ioos:station:TABS:H:1,2007-05-03T21:30:00Z,27.8674,-96.5433,2.0,149.2795009,34.31546153,-99999.0,'11111222,11111222,99999999' 
TABS,ioos:station:TABS:H:1,2007-05-03T22:00:00Z,27.8674,-96.5433,2.0,154.54361,38.13209934,-99999.0,'11111222,11111222,99999999' 
TABS,ioos:station:TABS:H:1,2007-05-03T22:30:00Z,27.8674,-96.5433,2.0,161.5813576,43.99360863,-99999.0,'11111222,11111222,99999999' 
TABS,ioos:station:TABS:H:1,2007-05-03T23:00:00Z,27.8674,-96.5433,2.0,165.0996575,44.87904299,-99999.0,'11111222,11111222,99999999' 
TABS,ioos:station:TABS:H:1,2007-05-03T23:30:00Z,27.8674,-96.5433,2.0,161.9363591,43.40949781,-99999.0,'11111222,11111222,99999999' 
TABS,ioos:station:TABS:H:1,2007-05-04T00:00:00Z,27.8674,-96.5433,2.0,165.4506249,39.01099332,-99999.0,'11111222,11111222,99999999' 
TABS,ioos:station:TABS:H:1,2007-05-04T00:30:00Z,27.8674,-96.5433,2.0,168.2553141,39.30280397,-99999.0,'11111222,11111222,99999999' 
TABS,ioos:station:TABS:H:1,2007-05-04T01:00:00Z,27.8674,-96.5433,2.0,183.3723324,33.14740714,-99999.0,'11111222,11111222,99999999' 
TABS,ioos:station:TABS:H:1,2007-05-04T01:30:00Z,27.8674,-96.5433,2.0,183.0355088,27.56868695,-99999.0,'11111222,11111222,99999999' 
TABS,ioos:station:TABS:H:1,2007-05-04T02:00:00Z,27.8674,-96.5433,2.0,189.0108155,21.70791561,-99999.0,'11111222,11111222,99999999' 
TABS,ioos:station:TABS:H:1,2007-05-04T02:30:00Z,27.8674,-96.5433,2.0,210.4554685,26.69308899,-99999.0,'11111222,11111222,99999999' 
TABS,ioos:station:TABS:H:1,2007-05-04T03:00:00Z,27.8674,-96.5433,2.0,203.4243773,34.61264509,-99999.0,'11111222,11111222,99999999' 
TABS,ioos:station:TABS:H:1,2007-05-04T03:30:00Z,27.8674,-96.5433,2.0,200.6062171,39.89232006,-99999.0,'11111222,11111222,99999999' 
TABS,ioos:station:TABS:H:1,2007-05-04T04:00:00Z,27.8674,-96.5433,2.0,196.0333247,41.05712119,-99999.0,'11111222,11111222,99999999' 
TABS,ioos:station:TABS:H:1,2007-05-04T04:30:00Z,27.8674,-96.5433,2.0,194.6351303,39.89444072,-99999.0,'11111222,11111222,99999999' 
TABS,ioos:station:TABS:H:1,2007-05-04T05:00:00Z,27.8674,-96.5433,2.0,196.0388098,31.09023158,-99999.0,'11111222,11111222,99999999' 
TABS,ioos:station:TABS:H:1,2007-05-04T05:30:00Z,27.8674,-96.5433,2.0,198.8529042,28.16083273,-99999.0,'11111222,11111222,99999999' 
TABS,ioos:station:TABS:H:1,2007-05-04T06:00:00Z,27.8674,-96.5433,2.0,203.7753564,30.50928383,-99999.0,'11111222,11111222,99999999' 
TABS,ioos:station:TABS:H:1,2007-05-04T06:30:00Z,27.8674,-96.5433,2.0,197.4396501,27.8607053,-99999.0,'11111222,11111222,99999999' 
TABS,ioos:station:TABS:H:1,2007-05-04T07:00:00Z,27.8674,-96.5433,2.0,201.3044399,24.63341227,-99999.0,'11111222,11111222,99999999' 
TABS,ioos:station:TABS:H:1,2007-05-04T07:30:00Z,27.8674,-96.5433,2.0,194.2699566,23.16477067,-99999.0,'11111222,11111222,99999999' 
TABS,ioos:station:TABS:H:1,2007-05-04T08:00:00Z,27.8674,-96.5433,2.0,187.2513892,19.64714992,-99999.0,'11111222,11111222,99999999' 
TABS,ioos:station:TABS:H:1,2007-05-04T08:30:00Z,27.8674,-96.5433,2.0,186.9016705,18.47387344,-99999.0,'11111222,11111222,99999999' 
TABS,ioos:station:TABS:H:1,2007-05-04T09:00:00Z,27.8674,-96.5433,2.0,192.1664541,16.13235569,-99999.0,'11111222,11111222,99999999' 
TABS,ioos:station:TABS:H:1,2007-05-04T09:30:00Z,27.8674,-96.5433,2.0,153.1435926,14.07846583,-99999.0,'11111222,11111222,99999999' 
TABS,ioos:station:TABS:H:1,2007-05-04T10:00:00Z,27.8674,-96.5433,2.0,148.2140277,19.36418343,-99999.0,'11111222,11111222,99999999' 
TABS,ioos:station:TABS:H:1,2007-05-04T10:30:00Z,27.8674,-96.5433,2.0,151.3915041,21.69918432,-99999.0,'11111222,11111222,99999999' 
TABS,ioos:station:TABS:H:1,2007-05-04T11:00:00Z,27.8674,-96.5433,2.0,128.5403429,20.23860173,-99999.0,'11111222,11111222,99999999' 
TABS,ioos:station:TABS:H:1,2007-05-04T11:30:00Z,27.8674,-96.5433,2.0,133.1121386,20.82145288,-99999.0,'11111222,11111222,99999999' 
TABS,ioos:station:TABS:H:1,2007-05-04T12:00:00Z,27.8674,-96.5433,2.0,132.7583677,26.39527988,-99999.0,'11111222,11111222,99999999' 
TABS,ioos:station:TABS:H:1,2007-05-04T12:30:00Z,27.8674,-96.5433,2.0,125.0245382,31.67642657,-99999.0,'11111222,11111222,99999999' 
TABS,ioos:station:TABS:H:1,2007-05-04T13:00:00Z,27.8674,-96.5433,2.0,125.3583223,33.43763449,-99999.0,'11111222,11111222,99999999' 
TABS,ioos:station:TABS:H:1,2007-05-04T13:30:00Z,27.8674,-96.5433,2.0,124.660689,33.72506486,-99999.0,'11111222,11111222,99999999' 
TABS,ioos:station:TABS:H:1,2007-05-04T14:00:00Z,27.8674,-96.5433,2.0,122.9037152,39.00741724,-99999.0,'11111222,11111222,99999999' 
TABS,ioos:station:TABS:H:1,2007-05-04T14:30:00Z,27.8674,-96.5433,2.0,130.983254,37.24995705,-99999.0,'11111222,11111222,99999999' 
TABS,ioos:station:TABS:H:1,2007-05-04T15:00:00Z,27.8674,-96.5433,2.0,136.9601764,34.31476067,-99999.0,'11111222,11111222,99999999' 
TABS,ioos:station:TABS:H:1,2007-05-04T15:30:00Z,27.8674,-96.5433,2.0,166.1489677,40.47698235,-99999.0,'11111222,11111222,99999999' 
TABS,ioos:station:TABS:H:1,2007-05-04T16:00:00Z,27.8674,-96.5433,2.0,167.5620347,41.6474465,-99999.0,'11111222,11111222,99999999' 
TABS,ioos:station:TABS:H:1,2007-05-04T16:30:00Z,27.8674,-96.5433,2.0,183.377133,46.34048446,-99999.0,'11111222,11111222,99999999' 
TABS,ioos:station:TABS:H:1,2007-05-04T17:00:00Z,27.8674,-96.5433,2.0,184.787307,47.80679554,-99999.0,'11111222,11111222,99999999' 
TABS,ioos:station:TABS:H:1,2007-05-04T17:30:00Z,27.8674,-96.5433,2.0,186.5494986,40.76607045,-99999.0,'11111222,11111222,99999999' 
TABS,ioos:station:TABS:H:1,2007-05-04T18:00:00Z,27.8674,-96.5433,2.0,186.1956044,39.00785177,-99999.0,'11111222,11111222,99999999' 